Flag for U.S.A. Weather past 2 weeks in Aurora, Illinois, U.S.A.

Now
69 °F

Partly sunny.


Feels Like: 69 °F
Forecast: 55 / 72 °F
Wind: 7 mph from North

Location: Dupage Airport

Current Time: Jul 1, 2015 at 3:03:46 PM

Latest Report: Jul 1, 2015 at 1:52 PM


Visibility: 10 mi

Pressure: 29.94 "Hg

Humidity: 63%

Dew point: 56 °F

Location of AuroraLocation

Historic Weather in Aurora — Graph

°F

Aurora temperature yesterday

Maximum temperature yesterday: 75 °F (at 12:52 PM)
Minimum temperature yesterday: 61 °F (at 4:52 AM)
Average temperature yesterday: 68 °F

Past Weeks' High & Low Weather Summary

 TemperatureHumidityPressure
High84 °F (Jun 21, 2:52 PM)97% (Jun 18, 5:52 AM)30.15 "Hg (Jun 18, 5:52 AM)
Low53 °F (Jun 20, 1:52 AM)37% (Jun 27, 2:52 PM)29.67 "Hg (Jun 20, 1:52 PM)
Average68 °F76%29.94 "Hg
* Reported Jun 16 1:52 PM — Jul 1 1:52 PM, Aurora, Weather by CustomWeather, © 2015

Note: Actual official high and low records may vary slightly from our data, if they occured in-between our weather recording intervals... More about our weather records

Advertising

Aurora weather history for previous 24 hours

 ConditionsComfort  
Time TempWeatherWind HumidityBarometerVisibility
1:52 PM
Wed, Jul 1
69 °FPartly sunny.7 mph63%29.94 "Hg10 mi
12:52 PM68 °FOvercast.7 mph68%29.96 "Hg10 mi
11:52 AM69 °FBroken clouds.5 mph66%29.96 "Hg10 mi
10:52 AM65 °FOvercast.6 mph70%29.96 "Hg10 mi
9:52 AM63 °FOvercast.6 mph73%29.96 "Hg10 mi
8:52 AM60 °FMostly cloudy.6 mph78%29.96 "Hg10 mi
7:52 AM58 °FMostly cloudy.9 mph81%29.95 "Hg10 mi
6:52 AM57 °FOvercast.6 mph81%29.95 "Hg10 mi
5:52 AM57 °FOvercast.5 mph81%29.93 "Hg10 mi
4:52 AM57 °FOvercast.8 mph81%29.92 "Hg10 mi
3:52 AM57 °FOvercast.5 mph81%29.92 "Hg10 mi
2:52 AM57 °FOvercast.7 mph81%29.92 "Hg10 mi
1:52 AM58 °FPassing clouds.7 mph81%29.91 "Hg10 mi
12:52 AM58 °FPassing clouds.6 mph84%29.91 "Hg10 mi
10:52 PM
Tue, Jun 30
61 °FOvercast.6 mph81%29.90 "Hg10 mi
9:52 PM61 °FClear.8 mph83%29.89 "Hg10 mi
8:52 PM65 °FSunny.8 mph78%29.86 "Hg10 mi
7:52 PM68 °FSunny.6 mph76%29.85 "Hg10 mi
6:52 PM71 °FPassing clouds.9 mph71%29.83 "Hg10 mi
5:52 PM75 °FPassing clouds.7 mph58%29.82 "Hg10 mi
4:52 PM75 °FPassing clouds.10 mph58%29.82 "Hg9 mi
3:52 PM74 °FScattered clouds.10 mph62%29.82 "Hg9 mi
Weather by CustomWeather, © 2015

See weather overviewHow to use our weather pages